Location: Bédeille
(43.0872°N, 1.1041°E)
Time: 13:36:46
(UTC+00:00)

CZ-4 R/B - Pass Details

Date: 03 February 2023
Orbit: 525 x 588 km, 97.7° (Epoch: 19 March)

Event Time Altitude Azimuth Distance (km) Brightness Sun altitude
Rises 18:01:27 0° 130° (SE) 2,802 4.6 -9.7°
Reaches altitude 10° 18:04:02 10° 114° (ESE) 1,900 3.6 -10.2°
Maximum altitude 18:07:04 20° 66° (ENE) 1,356 2.7 -10.7°
Drops below altitude 10° 18:10:05 10° 19° (NNE) 1,887 3.7 -11.3°
Sets 18:12:38 0° 3° (N) 2,778 4.8 -11.7°
